Location: Unspecified
(45.6669°N, 0.0000°E)
Time: 05:12:00
(UTC+00:00)

ISS - Pass Details

Date: 23 May 2019
Orbit: 407 x 418 km, 51.6° (Epoch: 20 June)

Event Time Altitude Azimuth Distance (km) Brightness Sun altitude
Rises 22:58:33 0° 295° (WNW) 2,362 0.6 -22.4°
Reaches altitude 10° 23:00:46 10° 305° (NW) 1,499 -0.3 -22.5°
Maximum altitude 23:03:53 34° 13° (NNE) 710 -2.1 -22.6°
Enters shadow 23:04:59 27° 53° (NE) 852 -2.0 -22.6°
